Location: Coatesville
(39.9830°N, 75.8240°W)
Time: 22:13:53
(UTC-04:00)

Tiangong 2 - Visible Passes

Search period start: 18 March 2019 00:00
Search period end: 28 March 2019 00:00
Orbit: 379 x 390 km, 42.8° (Epoch: 18 March)

Date Brightness Start Highest point End Pass type
(mag) Time Alt. Az. Time Alt. Az. Time Alt. Az.
18 Mar 4.7 04:29:28 11° ENE 04:29:28 11° ENE 04:29:34 10° ENE visible
18 Mar 1.5 06:01:41 23° WNW 06:03:25 55° N 06:06:34 10° E visible
19 Mar 2.9 05:04:58 32° ENE 05:04:58 32° ENE 05:06:59 10° E visible
19 Mar 1.1 06:37:35 10° WNW 06:40:45 77° SSW 06:43:57 10° ESE visible
20 Mar 1.1 05:40:31 47° NW 05:41:17 73° NNE 05:44:28 10° E visible
21 Mar 3.9 04:43:55 18° E 04:43:55 18° E 04:44:53 10° E visible
21 Mar 1.5 06:16:09 15° W 06:18:30 46° SSW 06:21:34 10° SE visible
22 Mar 1.6 05:19:40 54° SE 05:19:40 54° SE 05:22:14 10° ESE visible
23 Mar 2.2 05:55:31 25° SW 05:56:09 27° SSW 05:58:53 10° SSE visible
24 Mar 3.8 04:59:19 14° SE 04:59:19 14° SE 04:59:48 10° SE visible
25 Mar 3.7 05:35:31 11° S 05:35:31 11° S 05:35:39 10° S visible
